www.pogodaiklimat.ru

Погода и климат >> Архив погоды >> Россия >> Якутия >> Усть-Мая


ПОГОДА в Усть-Мае

АРХИВ ПОГОДЫ в Усть-Мае

Время (UTC), дата Ветер
(напр.,м/с)
 
Видим.   Явления Облачность Т
(С)
Тd
(С)
f
(%)
Тe
(С)
Тes
(С)
Комфортность P
(гПа)
Po
(гПа)
Тmin
(С)
Tmax
(С)
R
(мм)
R24
(мм)
S
(см)
06 17.08 СЗ 1 4000 м мгла 6/5 600 м
[Cb cap Ac trans]
+22.7 +17.9 74 +28 +31 душно 1010.7 991.2
09 17.08 С 2 10 км дым 8/3 1000 м
[Cu med, cong Ac trans Ci fib]
+22.1 +17.2 74 +27 +27 душно 1009.6 990.1 +23.0
12 17.08 С 2 10 км дым 10/3 600 м
[Cb cap Ac trans Ci fib]
+17.8 +16.1 90 +18 +18 1009.5 989.7
15 17.08 СВ 2 10 км дым 10/5 600 м
[Cb cap Ac trans]
+17.8 +16.3 91 +18 +18 1008.0 988.3
18 17.08 С 2 10 км дым 10/4 600 м
[Cb cap Ac trans]
+16.0 +15.1 94 +16 +16 1007.9 988.0
21 17.08 СВ 1 4000 м ливневой дождь 10/10 240 м
[Cb cap]
+15.4 +14.9 97 +16 +16 1008.4 988.5 +15.4 1
00 18.08 СЗ 3 50 км в посл. час ливневой дождь 10/10 240 м
[Cb cap]
+12.7 +12.0 96 +11 +11 1009.6 989.4 +12.7
03 18.08 СЗ 2 50 км в посл. час ливневой дождь 10/10 240 м
[Cb cap]
+13.9 +12.8 93 +13 +13 1009.5 989.4
06 18.08 СЗ 1 10 км {ливн. осадки} 10/10 210 м
[Cb cap]
+14.2 +13.1 93 +14 +14 1009.9 989.8
09 18.08 штиль 0 50 км 10/10 330 м
[Cb cap]
+14.6 +13.0 90 +14 +14 1009.7 989.7 +15.4 8
12 18.08 СЗ 1 50 км 10/9 450 м
[Cb cap Ac trans]
+14.0 +13.3 96 +14 +14 1009.5 989.4
15 18.08 СЗ 1 50 км 10/8 480 м
[Cb cap Ac trans]
+13.6 +13.1 97 +14 +14 1008.5 988.4
18 18.08 С 2 50 км 10/10 330 м
[Cb cap]
+13.3 +12.8 97 +12 +12 1008.0 987.9
21 18.08 штиль 0 20 км 10/10 210 м
[Cb cap]
+13.8 +13.1 96 +13 +13 1007.8 987.7 +13.3
00 19.08 СЗ 1 4000 м слабый ливневой дождь 10/10 150 м
[Cb cap]
+13.5 +13.1 97 +14 +14 1008.2 988.2
03 19.08 СЗ 1 4000 м слабый ливневой дождь 10/10 330 м
[Cb cap]
+14.3 +13.2 93 +15 +15 1008.7 988.6
06 19.08 ЮЗ 1 50 км {ливн. осадки} 10/10 700 м
[Cb cap]
+14.8 +13.6 93 +15 +15 1008.7 988.7
09 19.08 З 1 50 км 10/10 1140 м
[Cb cap]
+15.2 +13.4 89 +16 +16 1009.1 989.1 +15.8 2
12 19.08 З 1 50 км 10/8 930 м
[Cb cap Ac trans]
+13.8 +12.7 93 +14 +14 1010.0 989.9
15 19.08 З 1 50 км 3/0
[Ac trans]
+12.1 +11.3 95 +12 +12 1010.1 989.9
18 19.08 ЮЗ 2 50 км 9/5 1000 м
[Cb cap Ac trans]
+11.6 +10.8 95 +10 +10 1010.0 989.7
21 19.08 З 2 50 км 10/10 330 м
[Cb cap]
+11.5 +11.1 97 +10 +10 1010.3 990.0 +11.3
00 20.08 З 2 20 км 10/10 300 м
[Cb cap]
+13.6 +11.7 88 +13 +13 1010.3 990.2
03 20.08 З 2 20 км дым 9/5 600 м
[Cb cap Ac trans Ci fib]
+17.1 +11.6 70 +17 +20 1009.7 989.8
06 20.08 З 2 50 км 8/5 600 м
[Cb cap Ac trans]
+19.9 +11.1 57 +22 +24 комфорт 1008.7 989.0
09 20.08 СЗ 2 50 км 5/3 1000 м
[Sc Ac trans]
+19.8 +9.7 52 +22 +22 комфорт 1008.8 989.1 +20.9
12 20.08 З 2 50 км 6/4 1000 м
[Cb cap Ci fib]
+15.9 +11.3 74 +16 +16 1009.7 989.7
15 20.08 СЗ 2 50 км 3/0
[Ci fib]
+12.1 +10.2 88 +11 +11 1010.2 989.9
18 20.08 СЗ 2 50 км 3/0
[Ac trans]
+11.1 +8.7 85 +10 +10 1010.4 990.1
21 20.08 СЗ 2 50 км 4/0
[Ac trans Ci fib]
+9.4 +7.1 86 +8 +8 1011.2 990.8 +8.4
00 21.08 З 1 50 км ясно +14.7 +9.7 72 +15 +22 1010.8 990.7
03 21.08 ЮВ 2 50 км 1/0
[Ci fib]
+18.5 +8.4 52 +19 +29 1009.6 989.8
06 21.08 ЮВ 2 50 км 3/0
[Ci fib]
+20.3 +8.5 47 +22 +28 комфорт 1008.5 988.3
09 21.08 В 2 50 км 6/0
[Ci fib]
+20.3 +10.5 53 +22 +23 комфорт 1007.1 987.5 +21.6
12 21.08 СВ 1 50 км 8/0
[Ac trans Ci fib]
+13.0 +9.7 80 +13 +13 1008.0 987.8
15 21.08 С 1 50 км 3/0
[Ac trans]
+10.1 +9.3 95 +10 +10 1007.8 987.5
18 21.08 ЮВ 2 50 км 4/0
[Ac trans Ci fib]
+14.0 +11.1 83 +13 +13 1007.3 987.2
21 21.08 В 5 50 км 10/0
[Ac trans Ci fib]
+14.9 +9.8 72 +13 +14 1006.0 986.0 +9.7
00 22.08 ЮВ 6-12
{18}
50 км 10/0
[Ac lent Ci]
+17.5 +10.0 61 +17 +18 1005.0 985.2
03 22.08 ЮВ 8-13
{16}
50 км 10/4 1000 м
[Cu hum Ci fib]
+20.9 +11.0 53 +22 +23 комфорт 1003.3 983.8
06 22.08 ЮВ 6-12
{14}
50 км 10/8 1320 м
[Sc diur, vesp Cs]
+20.0 +10.6 55 +21 +22 комфорт 1002.9 983.3
09 22.08 ЮВ 4
{16}
50 км 10/5 1000 м
[Sc Ac und]
+19.6 +11.1 58 +21 +21 комфорт 1003.1 983.5 +21.4
12 22.08 ЮВ 5
{13}
50 км 10/6 1000 м
[Sc Ac trans]
+18.2 +10.8 62 +18 +18 1004.0 984.3
15 22.08 ЮВ 4
{10}
50 км 10/5 1000 м
[Sc Ac trans]
+16.9 +10.9 68 +16 +16 1004.5 984.7
18 22.08 ЮВ 5 50 км 10/4 1000 м
[Sc Ac trans]
+16.1 +11.0 72 +15 +15 1004.6 984.7
21 22.08 ЮВ 3 50 км 9/3 1000 м
[Sc Ac trans Cs]
+15.2 +10.6 74 +15 +15 1004.6 984.7 +15.2
00 23.08 Ю 7-12
{14}
50 км 8/4 1000 м
[Sc Ac trans]
+18.1 +8.2 52 +17 +18 1004.8 985.1
03 23.08 Ю 7-11
{13}
50 км 8/4 1000 м
[Cu hum Ac trans]
+20.5 +11.5 56 +22 +23 комфорт 1004.4 984.9
06 23.08 Ю 6-10
{13}
50 км 8/4 1000 м
[Cu hum Ac trans]
+21.0 +11.4 54 +23 +24 комфорт 1003.7 984.2
09 23.08 ЮВ 5
{11}
50 км 6/3 1000 м
[Sc Ac trans]
+19.4 +11.2 59 +20 +21 1004.2 984.7 +21.2
12 23.08 ЮВ 2 50 км 8/4 1000 м
[Sc Ac trans]
+17.4 +11.7 69 +18 +18 1004.8 985.0
15 23.08 Ю 4 50 км 6/3 1000 м
[Sc Ac trans]
+16.6 +11.6 72 +16 +16 1004.7 984.9
18 23.08 Ю 6-10
{10}
50 км 10/5 1000 м
[Sc Ac trans]
+15.7 +11.5 76 +14 +14 1004.7 984.8
21 23.08 Ю 6
{11}
50 км 10/5 1000 м
[Sc Ac und]
+14.6 +11.0 79 +13 +13 1005.1 985.1 +14.6
00 24.08 ЮВ 5
{12}
50 км 9/4 1000 м
[Sc Ac trans]
+16.2 +11.1 72 +15 +16 1005.2 985.3
03 24.08 ЮВ 2 50 км 10/10 1000 м
[Cb cap]
+13.4 +8.0 70 +13 +13 1009.1 964.7

 

Местоположение метеостанции Усть-Мая (Якутия, Россия): широта 60.35 долгота 134.40 высота над уровнем моря 170 м.

В архиве по умолчанию представлена погода в Усть-Мае за последнюю неделю. Архивные данные за месяц целиком и за предыдущие месяцы, начиная с января 2011 года, Вы можете получить, выбрав интересующий диапазон дат из раскрывающегося списка и нажав кнопку "Ввод!".

Внимание! Время в таблицах - всемирное. Для получения местного времени необходимо прибавить поправку, которая в Усть-Мае равна 9 ч.

Смотрите также архив погоды в соседних городах и на ближайших метеорологических станциях:

Погода в Усть-Миле (Якутия, Россия) (112 км)
Погода в Усть-Юдоме (Якутия, Россия) (136 км)
Погода в Амге (Якутия, Россия) (149 км)
Погода в Охотском Перевозе (Якутия, Россия) (179 км)
Погода в Югоренке (Якутия, Россия) (189 км)
Погода в Чурапче (Якутия, Россия) (210 км)
Погода в Ытык-Кюёле (Якутия, Россия) (230 км)
Погода в Тегюльте (Якутия, Россия) (242 км)
Погода в Крест-Хальджае (Якутия, Россия) (275 км)
Погода в Учуре (Якутия, Россия) (280 км)

Пояснения к столбцам:

Ветер - указаны скорость ветра в м/с - средняя за 10 мин, порывы в срок и между сроками (в фигурных скобках) и направление, откуда дует ветер: С - северный, СВ - северо-восточный, В - восточный, ЮВ - юго-восточный, Ю - южный, ЮЗ - юго-западный, З - западный, СЗ - северо-западный.
Видимость - горизонтальная дальность видимости в метрах или километрах. При видимости от 1 до 10 км при отсутствии осадков обычно наблюдается дымка, при ухудшении видимости до 1 км и менее - туман. В сухую погоду видимость может ухудшаться дымом, пылью или мглою.
Явления - указаны атмосферные явления, наблюдавшиеся в срок или в последний час перед сроком; фигурными скобками обозначены явления, наблюдавшиеся между сроками (за 1-3 часа до срока); квадратными скобками обозначены град или гололедные отложения с указанием их диаметра в мм.
Облачность - указаны через наклонную черту общая и нижняя облачность в баллах и высота нижней границы облаков в метрах; квадратными скобками обозначены формы облаков: Ci - перистые, Cs - перисто-слоистые, Cc - перисто-кучевые, Ac - высококучевые, As - высокослоистые, Sc - слоисто-кучевые, Ns - слоисто-дождевые, Cu - кучевые, Cb - кучево-дождевые. Подробнее классификацию облаков см. в Атласе облаков (PDF).
T - Температура воздуха - температура, измеренная на высоте 2 м над землей.
Td - Температура точки росы - температура, при понижении до которой содержащийся в воздухе водяной пар достигнет насыщения.
f - Относительная влажность воздуха - влажноcть воздуха, измеренная на высоте 2 м над землей.
Te - Эффективная температура - температура, которую ощущает одетый по сезону человек в тени. Характеристика душности погоды. При расчете учитывается влияние влажности воздуха и скорости ветра на теплоощущения человека.
Tes - Эффективная температура на солнце - температура, которую ощущает человек, с поправкой на солнечный нагрев. Характеристика знойности погоды. Зависит от высоты солнца над горизонтом, облачности и скорости ветра. Ночью, в пасмурную погоду, а также при ветре 12 м/с и более поправка равна нулю.
P - Атмосферное давление - приведенное к уровню моря атмосферное давление.
Po - Атмосферное давление - измеренное на уровне метеостанции атмосферное давление.
Tmin - Минимальная температура - минимум температуры воздуха на высоте 2 м над землей.
Tmax - Максимальная температура - максимум температуры воздуха на высоте 2 м над землей.
R - Количество осадков - Количество выпавших осадков за период времени, мм. При наведении курсора мыши на число - период времени, за который выпало указанное количество осадков.
R24 - Количество осадков - Количество выпавших осадков за 24 часа, мм.
S - Снежный покров - Высота снежного покрова, см. При наведении курсора мыши на число - состояние снежного покрова и степень покрытия местности в баллах.